Probability
0 1 2 2 1 1 1 0 0 0 0 0 0 0 0 0 0 0 0 0 0 0 0 0 0 0 0 0 0 0 1 2 1 0 0 0 0 0 0 0 0 0 0
0 1 2 2 1 0 0 0 0 0 0 0 0 0 0 0 0 0 0 0 0 0 0 0 0 0 0 0 0 0 1 1 1 0 0 0 0 0 0 0 0 0 0
0 0 1 2 1 0 0 0 0 0 0 0 0 0 0 0 0 0 0 0 0 0 0 0 0 0 0 0 0 0 0 0 0 0 0 0 0 0 0 0 0 0 0
0 0 1 2 1 0 0 0 0 0 0 0 0 0 0 0 0 0 0 0 0 0 0 0 0 0 0 0 0 0 0 0 0 0 0 0 0 0 0 0 0 0 0
0 0 1 2 1 0 0 0 0 0 0 0 0 0 0 0 0 0 0 0 0 0 0 0 0 0 0 0 0 0 0 0 0 0 0 0 0 0 0 0 0 0 0
0 0 2 2 1 0 0 0 0 0 0 0 0 0 0 0 0 0 0 0 0 0 0 0 0 0 0 0 0 0 0 0 0 0 0 0 0 0 0 0 0 0 0
0 0 1 3 3 1 1 1 0 0 0 0 0 0 0 0 0 0 0 0 0 0 0 0 0 0 0 0 0 0 0 0 0 0 0 0 0 0 0 0 0 0 0
0 1 1 2 3 2 2 1 0 0 0 0 0 0 0 0 0 0 0 0 0 0 0 0 0 0 0 0 0 0 0 0 0 0 0 0 0 0 0 0 0 0 0
1 2 2 2 1 1 1 1 0 0 0 0 0 0 0 0 0 0 0 0 0 0 0 0 0 0 0 0 0 0 0 0 0 0 0 0 0 0 0 0 0 0 0
1 2 3 1 0 0 0 0 0 0 0 0 0 0 0 0 0 0 0 0 0 0 0 0 0 0 0 0 0 0 0 0 0 0 0 0 0 0 0 0 0 0 0
0 1 1 0 0 0 0 0 0 0 0 0 0 0 0 0 0 0 0 0 0 0 0 0 0 0 0 0 0 0 0 0 0 0 0 0 0 0 0 0 0 0 0
0 0 0 0 0 0 0 0 0 0 0 0 0 0 0 0 0 0 0 0 0 0 0 0 0 0 0 0 0 0 0 0 0 0 0 0 0 0 0 0 0 0 0
1 0 0 0 0 0 0 0 0 0 0 0 0 0 0 0 0 0 0 0 0 0 0 0 0 0 0 0 0 0 0 0 0 0 0 0 0 0 0 0 0 0 0
4 3 1 1 1 0 0 1 1 1 0 0 0 0 1 1 1 0 0 0 0 0 0 0 0 0 0 0 0 0 0 0 0 0 0 0 0 0 0 0 0 0 0
10 8 5 3 1 0 0 1 2 1 0 0 0 1 2 2 2 1 0 0 0 0 0 0 0 0 0 0 0 0 0 0 0 0 0 0 0 0 0 0 0 0 0
17 16 12 6 3 0 0 1 1 1 0 0 1 1 3 3 2 1 0 0 1 1 0 0 0 0 0 0 0 0 0 0 0 0 0 0 0 0 0 0 0 0 0
24 22 17 12 7 3 2 1 1 0 0 0 1 2 3 4 3 2 2 1 2 2 1 1 0 0 0 0 0 0 0 0 0 0 0 0 0 0 0 0 0 0 0
27 24 20 15 11 8 6 4 3 1 0 1 2 3 4 6 6 5 4 3 3 3 2 1 0 0 0 0 0 0 0 0 0 0 0 0 0 0 0 0 1 2 2
26 24 20 17 15 12 9 6 4 3 2 2 3 5 6 7 8 7 5 4 3 3 1 1 1 0 0 0 0 0 0 0 0 0 0 0 0 0 0 1 3 4 6
25 24 22 20 17 14 11 7 5 4 4 4 5 7 8 8 8 6 4 3 3 2 1 0 1 0 0 0 0 0 0 0 0 0 0 0 0 0 1 2 3 5 7
25 27 27 25 21 19 16 12 9 6 5 5 6 7 8 9 8 6 4 3 3 1 0 0 0 0 0 0 0 0 0 0 0 0 0 0 0 1 2 4 4 4 5
29 31 31 30 28 25 23 20 16 10 6 6 6 6 7 9 10 7 4 3 2 1 1 1 1 1 1 0 0 0 0 0 0 0 0 0 0 1 2 4 4 4 3
35 35 34 33 32 30 27 26 23 16 10 8 7 8 9 11 11 9 6 4 3 3 3 3 2 2 2 1 0 0 0 0 0 0 0 0 0 0 1 1 3 3 3
41 40 39 37 35 33 30 29 27 21 14 10 9 9 10 11 11 10 7 6 5 5 5 4 3 3 3 1 0 0 0 0 0 0 0 0 0 0 0 0 1 2 3
44 43 41 39 36 34 32 29 25 21 15 11 9 10 10 10 10 10 8 7 6 5 4 3 2 2 2 1 0 0 0 0 0 0 0 0 0 0 0 0 1 1 1
44 43 40 37 35 34 31 26 22 19 14 10 9 9 8 8 9 10 9 7 5 4 3 2 1 1 1 1 0 0 0 0 0 0 0 0 0 0 0 0 0 1 0
Wind_Speed
4 5 12 13 14 14 15 15 15 16 16 16 16 16 16 16 16 16 16 16 15 15 15 16 16 16 16 16 16 17 17 17 17 17 16 17 17 17 17 16 15 11 17
8 8 12 13 14 14 14 14 15 15 15 15 15 15 15 15 16 15 15 15 15 15 15 15 15 15 15 15 15 16 16 16 16 16 16 15 16 16 15 15 14 10 16
10 8 11 13 14 14 14 14 14 14 14 14 14 14 14 15 15 15 15 14 14 14 14 14 15 14 14 14 14 14 15 15 15 15 14 7 9 14 15 15 15 15 15
11 8 10 14 14 14 14 14 14 14 14 14 14 14 14 14 14 14 14 14 13 14 14 13 13 13 13 12 12 12 13 13 13 14 7 5 7 13 14 14 14 14 14
10 7 10 15 14 14 14 13 13 13 13 13 13 13 13 13 13 13 13 13 13 13 13 13 12 12 11 11 10 10 10 11 12 10 6 5 5 12 13 13 13 13 13
9 7 10 15 15 14 13 13 13 13 13 13 13 12 12 12 12 13 12 12 12 12 12 11 11 10 10 10 9 9 9 10 9 6 5 5 5 11 13 13 13 13 13
10 7 9 15 15 14 13 13 12 12 12 12 12 12 12 12 12 12 12 12 11 11 11 10 10 9 9 8 8 8 7 9 6 6 5 4 6 11 12 12 12 12 12
11 8 9 15 15 14 13 13 12 12 12 11 11 11 11 11 11 11 11 11 10 10 9 9 8 8 7 7 7 7 7 8 8 7 5 5 8 11 11 11 11 11 11
10 8 6 7 10 13 13 12 12 11 11 10 10 10 11 11 10 10 10 9 9 9 8 7 7 6 6 5 5 5 5 8 5 4 7 4 9 11 12 11 11 10 10
9 7 6 6 5 5 7 11 11 11 10 10 10 10 10 10 9 9 8 8 8 8 7 6 5 4 3 3 4 4 5 7 4 4 3 5 11 12 12 11 11 10 10
9 7 7 7 6 5 5 8 9 10 9 9 8 9 7 3 4 4 6 8 7 7 6 5 4 2 1 1 2 3 3 2 4 3 3 9 12 13 12 11 11 10 10
11 9 8 8 7 6 6 5 3 4 4 4 3 4 3 3 3 4 6 7 7 6 5 4 3 2 1 0 0 1 1 3 3 3 4 11 12 13 12 12 11 11 10
13 11 9 9 8 7 4 4 3 2 3 3 4 4 3 3 2 2 2 3 3 4 2 2 2 1 1 1 1 1 2 3 2 3 5 12 12 12 12 12 12 11 11
11 11 10 10 8 7 6 5 4 3 3 3 4 5 4 2 3 3 2 2 2 1 2 2 1 2 3 2 2 3 3 3 3 3 5 13 13 13 13 13 13 12 12
11 10 10 10 9 7 6 5 5 4 4 4 4 5 5 4 4 3 3 3 3 2 2 3 3 3 2 2 2 3 4 5 5 4 4 13 14 14 14 14 14 13 13
10 9 9 9 8 7 6 4 4 5 4 4 4 5 6 4 4 4 4 3 3 3 3 3 4 3 3 2 2 3 4 5 6 6 5 8 14 14 14 15 14 14 14
10 9 9 9 8 7 6 5 4 4 4 4 4 5 6 5 5 4 4 3 3 3 3 3 3 2 2 2 3 3 3 4 6 6 6 5 6 13 15 15 15 15 15
10 10 9 9 8 7 5 4 3 3 3 3 4 4 5 6 5 4 4 3 3 3 2 2 2 2 2 2 2 2 3 4 6 7 6 6 5 6 11 16 16 15 16
11 10 9 7 7 6 5 3 2 2 2 3 3 3 5 5 5 4 4 3 3 2 2 3 2 2 2 2 3 3 3 3 4 6 7 8 7 7 6 11 16 16 17
10 10 8 7 7 6 4 2 1 1 1 2 3 4 5 4 5 4 4 4 3 2 2 2 2 2 2 2 3 2 2 3 4 5 7 7 7 8 8 8 8 10 17
9 8 8 8 7 5 3 2 2 2 1 1 2 4 4 4 5 4 4 3 3 3 4 4 2 2 2 1 0 2 3 3 4 4 4 5 7 8 8 8 6 6 6
10 9 8 8 7 6 4 3 2 2 2 2 2 1 3 3 4 5 5 4 4 4 4 4 3 2 2 2 2 1 2 4 3 4 3 4 5 4 6 8 7 7 6
10 10 9 7 7 6 5 3 1 1 1 0 1 1 2 2 3 3 5 5 4 4 4 5 4 4 3 2 3 4 3 3 3 3 2 3 3 3 3 4 6 7 7
11 9 8 7 7 6 6 4 4 3 3 3 2 2 2 3 3 4 4 5 5 4 4 5 5 4 4 3 2 2 3 3 2 2 3 2 1 2 3 4 5 5 6
9 8 7 6 6 6 6 6 5 3 3 2 1 1 2 3 3 4 4 4 4 4 4 4 4 4 4 4 3 2 2 2 3 2 3 3 2 2 2 3 3 3 4
7 7 7 6 5 6 6 5 5 5 3 2 2 2 2 2 3 3 3 3 3 3 4 4 4 4 4 4 3 3 3 3 3 3 4 3 2 2 2 2 2 3 3
Wind_Direction
134 133 120 112 107 103 99 96 94 92 91 91 92 93 93 94 94 95 96 97 99 99 100 101 100 101 103 104 105 107 108 109 110 110 111 111 112 112 111 110 109 108 110
141 133 121 115 111 107 104 101 98 96 95 94 95 96 96 97 97 97 98 98 98 99 100 101 101 101 103 105 107 109 109 110 109 109 108 110 113 113 112 111 111 113 113
131 127 122 118 114 110 107 105 102 101 99 98 97 97 98 99 100 101 100 99 99 100 101 102 102 103 104 106 109 112 112 111 109 108 104 96 107 112 114 114 115 114 113
130 127 126 123 118 114 111 108 105 103 102 101 100 100 101 102 103 103 102 101 101 102 104 104 105 106 106 107 110 113 113 113 116 111 99 97 106 113 115 116 116 116 115
126 126 133 127 122 119 116 113 110 107 107 105 104 104 103 104 105 106 105 105 104 105 106 106 106 106 107 107 108 111 113 114 115 106 98 94 101 119 119 119 120 118 119
128 131 136 130 127 124 121 118 115 113 112 110 108 108 107 108 108 109 109 109 109 109 109 108 107 105 105 105 105 106 114 115 111 105 105 107 111 125 125 125 124 123 123
134 136 137 135 133 131 128 125 123 121 118 116 114 112 112 112 111 111 113 114 113 112 112 111 108 105 102 101 99 100 110 118 118 117 117 116 124 129 128 128 127 129 129
139 138 140 141 139 137 135 133 131 128 125 123 121 120 118 116 116 116 118 119 119 118 118 116 113 109 102 97 99 106 114 120 126 130 128 129 136 135 134 134 134 134 134
139 140 140 145 143 143 142 140 138 135 133 131 129 127 125 124 124 123 124 125 126 127 127 124 121 116 109 101 101 113 113 119 122 136 140 139 142 142 142 143 142 140 141
142 147 147 143 142 144 147 149 147 145 143 142 140 137 135 134 132 131 131 133 135 137 138 137 134 126 116 109 113 126 122 121 126 134 137 156 153 151 151 151 150 149 148
151 161 161 156 155 154 159 162 158 156 156 155 152 151 143 130 129 137 146 146 145 148 152 155 157 155 147 122 143 142 117 126 139 144 156 163 161 160 159 158 157 157 156
166 174 172 168 169 170 172 159 165 167 163 164 164 159 150 156 169 164 164 163 161 162 169 180 194 218 241 302 188 148 133 143 147 159 167 168 167 167 166 166 165 165 165
171 173 176 175 176 178 171 167 179 176 172 181 184 179 170 168 168 162 164 173 177 181 192 215 236 260 261 233 194 193 181 161 168 170 171 172 174 174 175 175 174 174 175
170 176 174 178 178 182 175 179 181 183 186 190 194 185 173 167 168 171 181 185 189 196 208 225 239 257 263 250 211 193 179 170 172 169 180 180 181 182 182 184 184 184 184
168 173 173 173 176 177 174 186 182 190 195 194 191 187 178 173 177 180 187 192 199 200 203 219 229 241 244 245 215 187 178 171 171 177 182 186 188 190 190 192 192 193 194
164 166 169 168 170 169 170 178 178 187 191 189 188 186 180 176 177 176 183 193 204 203 206 212 223 223 229 227 212 193 186 175 178 183 188 194 197 197 198 199 199 200 201
161 161 165 167 166 165 166 170 170 175 176 185 190 188 182 178 178 176 182 192 208 203 199 211 227 222 231 223 212 206 194 187 184 189 192 195 203 207 206 206 206 207 208
159 160 167 168 163 165 164 164 166 166 167 184 188 187 186 184 179 173 180 196 203 200 190 200 206 212 232 227 224 222 209 199 196 196 196 199 203 209 213 213 213 213 214
168 165 169 165 164 165 164 163 168 161 173 182 185 189 192 189 182 176 188 200 194 194 200 216 199 195 217 229 232 233 226 217 210 205 202 205 206 209 209 217 218 216 218
170 167 167 163 168 165 158 148 147 159 189 184 189 201 197 194 188 182 193 204 192 185 203 208 211 215 216 220 246 256 243 232 221 216 212 208 209 212 212 215 218 221 222
168 168 169 166 172 162 152 156 165 196 208 215 214 208 203 202 199 194 201 206 199 200 208 208 202 220 234 201 156 312 307 266 239 234 218 207 212 214 209 211 212 212 221
174 175 174 173 173 170 168 166 171 177 202 214 226 203 203 203 204 207 202 203 202 206 219 216 202 201 231 183 157 151 319 325 303 249 227 220 220 212 213 214 211 211 217
178 178 179 178 171 172 167 150 141 95 345 281 248 221 227 223 227 223 209 206 207 204 216 220 207 199 215 226 177 162 178 234 291 309 269 238 223 204 214 212 212 217 218
183 178 168 168 169 171 165 162 164 176 204 223 215 218 235 234 234 232 221 213 211 209 216 223 212 205 194 219 224 204 194 179 185 292 314 304 267 218 207 215 212 212 214
176 171 162 161 173 173 170 175 180 196 210 218 210 220 249 256 251 247 234 221 220 216 218 221 213 210 204 207 208 207 215 211 198 198 269 299 318 274 221 213 207 200 206
160 161 156 162 177 178 175 179 186 194 203 209 212 218 249 260 262 261 247 231 226 223 227 223 214 211 215 216 215 204 196 202 205 194 225 250 267 281 274 237 215 206 205